This is the latest recevied weather packets stored in our database for station/object KV4OP. If no packets are shown the sender has not sent any weather packets the latest 10 day(s).
| Time | Temp. | Humidity | Pressure | Rain* | Wind** | Luminosity | Snow |
|---|---|---|---|---|---|---|---|
| 1788045943 | 25° C | 77% | 1017.8 hPa | 1.02 mm | - | - | - |
| 1788045652 | 25° C | 77% | 1017.7 hPa | 1.27 mm | - | - | - |
| 1788045343 | 25° C | 77% | 1017.6 hPa | 1.78 mm | - | - | - |
| 1788045043 | 25° C | 77% | 1017.7 hPa | 2.54 mm | - | - | - |
| 1788044745 | 25° C | 77% | 1017.7 hPa | 3.3 mm | - | - | - |
| 1788044453 | 25° C | 77% | 1017.9 hPa | 5.08 mm | - | - | - |
| 1788044143 | 25° C | 77% | 1017.9 hPa | 5.08 mm | - | - | - |
| 1788043844 | 24.44° C | 77% | 1017.9 hPa | 5.84 mm | - | - | - |
| 1788043543 | 24.44° C | 77% | 1018.1 hPa | 7.37 mm | - | - | - |
| 1788043252 | 24.44° C | 77% | 1018.1 hPa | 7.11 mm | - | - | - |
| 1788042943 | 24.44° C | 77% | 1018.3 hPa | 7.11 mm | - | - | - |
| 1788042643 | 24.44° C | 77% | 1018.4 hPa | 6.86 mm | - | - | - |
| 1788042344 | 24.44° C | 77% | 1018.8 hPa | 6.6 mm | - | - | - |
| 1788042052 | 25° C | 76% | 1019.1 hPa | 6.35 mm | - | - | - |
| 1788041743 | 24.44° C | 76% | 1019.2 hPa | 5.84 mm | - | - | - |
| 1788041443 | 25° C | 76% | 1019.4 hPa | 5.08 mm | - | - | - |
| 1788041143 | 25° C | 76% | 1019.4 hPa | 4.06 mm | - | - | - |
| 1788040853 | 25° C | 74% | 1019.5 hPa | 2.29 mm | - | - | - |
| 1788040543 | 25.56° C | 73% | 1019.4 hPa | 2.29 mm | - | - | - |
| 1788040244 | 26.67° C | 71% | 1019 hPa | 1.52 mm | - | - | - |
| 1788039944 | 27.22° C | 69% | 1018.7 hPa | 0 mm | - | - | - |
| 1788039653 | 28.33° C | 66% | 1018.9 hPa | 0 mm | - | - | - |
| 1788039344 | 30° C | 65% | 1018.5 hPa | 0 mm | - | - | - |
| 1788039044 | 30.56° C | 66% | 1017.9 hPa | 0 mm | - | - | - |
| 1788038744 | 30.56° C | 67% | 1017.8 hPa | 0 mm | - | - | - |
* Rain latest hour (hover to see other rain measurements)
** Current wind speed in m/s (hover to see current wind gust speed)